| time (UTC) | temp F | wind direction | speed knots | gust knots | rain 1hr in | rain 24hr in | rain mn in | humidity % | barometer mb |
| 20260506014138 | 70 | 231 | 0.0 | 2.6 | 0.00 | 0.00 | 0.00 | 48 | 1010.1 |
| 20260506013645 | 70 | 183 | 0.9 | 3.5 | 0.00 | 0.00 | 0.00 | 47 | 1010.1 |
| 20260506013001 | 70 | 148 | 0.9 | 3.5 | 0.00 | 0.00 | 0.00 | 47 | 1010.1 |
| 20260506012506 | 70 | 168 | 0.9 | 3.5 | 0.00 | 0.00 | 0.00 | 48 | 1010.0 |
| 20260506012009 | 70 | 142 | 0.9 | 6.1 | 0.00 | 0.00 | 0.00 | 46 | 1009.9 |
| 20260506011514 | 70 | 136 | 1.7 | 7.0 | 0.00 | 0.00 | 0.00 | 46 | 1009.9 |
| 20260506011018 | 70 | 206 | 0.0 | 7.0 | 0.00 | 0.00 | 0.00 | 47 | 1009.9 |
| 20260506010544 | 70 | 240 | 0.9 | 5.2 | 0.00 | 0.00 | 0.00 | 47 | 1010.0 |
| 20260506010048 | 70 | 186 | 1.7 | 5.2 | 0.00 | 0.00 | 0.00 | 47 | 1010.0 |
| 20260506005554 | 70 | 139 | 1.7 | 5.2 | 0.00 | 0.00 | 0.00 | 48 | 1009.9 |
| 20260506005102 | 69 | 303 | 1.7 | 5.2 | 0.00 | 0.00 | 0.00 | 48 | 1009.8 |
| 20260506004604 | 69 | 84 | 0.9 | 3.5 | 0.00 | 0.00 | 0.00 | 48 | 1009.7 |
| 20260506004104 | 69 | 181 | 0.9 | 3.5 | 0.00 | 0.00 | 0.00 | 49 | 1009.7 |
| 20260506003608 | 70 | 202 | 0.9 | 2.6 | 0.00 | 0.00 | 0.00 | 49 | 1009.8 |
| 20260506003135 | 70 | 144 | 0.0 | 2.6 | 0.00 | 0.00 | 0.00 | 49 | 1009.9 |
| 20260506002617 | 70 | 104 | 0.0 | 2.6 | 0.00 | 0.00 | 0.00 | 48 | 1010.0 |
| 20260506002120 | 71 | 144 | 0.9 | 3.5 | 0.00 | 0.00 | 0.00 | 48 | 1009.9 |
| 20260506001622 | 71 | 242 | 0.0 | 3.5 | 0.00 | 0.00 | 0.00 | 46 | 1010.2 |
| 20260506001002 | 71 | 103 | 0.0 | 2.6 | 0.00 | 0.00 | 0.00 | 44 | 1010.4 |
| 20260506000505 | 72 | 164 | 0.0 | 2.6 | 0.00 | 0.00 | 0.00 | 44 | 1010.4 |
| 20260506000004 | 72 | 226 | 0.9 | 2.6 | 0.00 | 0.00 | 0.00 | 42 | 1010.5 |
| 20260505235511 | 72 | 120 | 0.0 | 2.6 | 0.00 | 0.00 | 0.00 | 44 | 1010.5 |
| 20260505235010 | 73 | 225 | 0.0 | 3.5 | 0.00 | 0.00 | 0.00 | 42 | 1010.3 |
| 20260505234515 | 73 | 219 | 0.9 | 4.3 | 0.00 | 0.00 | 0.00 | 42 | 1010.3 |
| 20260505234042 | 73 | 110 | 0.9 | 5.2 | 0.00 | 0.00 | 0.00 | 40 | 1010.2 |
| 20260505233546 | 73 | 77 | 0.9 | 5.2 | 0.00 | 0.00 | 0.00 | 40 | 1010.2 |
| 20260505233052 | 73 | 136 | 0.9 | 6.1 | 0.00 | 0.00 | 0.00 | 40 | 1010.0 |
| 20260505232553 | 73 | 141 | 1.7 | 6.1 | 0.00 | 0.00 | 0.00 | 39 | 1010.0 |
| 20260505232103 | 74 | 233 | 1.7 | 4.3 | 0.00 | 0.00 | 0.00 | 39 | 1010.0 |
| 20260505231635 | 74 | 127 | 0.9 | 5.2 | 0.00 | 0.00 | 0.00 | 39 | 1009.9 |
| 20260505231115 | 74 | 208 | 0.9 | 6.1 | 0.00 | 0.00 | 0.00 | 39 | 1010.0 |
| 20260505230618 | 74 | 199 | 0.9 | 7.8 | 0.00 | 0.00 | 0.00 | 39 | 1009.9 |
| 20260505230124 | 74 | 219 | 0.9 | 7.8 | 0.00 | 0.00 | 0.00 | 40 | 1010.0 |
| 20260505225502 | 75 | 109 | 1.7 | 7.8 | 0.00 | 0.00 | 0.00 | 40 | 1009.9 |
| 20260505225003 | 75 | 192 | 1.7 | 7.8 | 0.00 | 0.00 | 0.00 | 39 | 1010.0 |
| 20260505224506 | 75 | 217 | 0.9 | 4.3 | 0.00 | 0.00 | 0.00 | 39 | 1010.0 |
| 20260505224036 | 76 | 165 | 1.7 | 5.2 | 0.00 | 0.00 | 0.00 | 39 | 1010.0 |
| 20260505223522 | 76 | 156 | 1.7 | 7.0 | 0.00 | 0.00 | 0.00 | 38 | 1010.0 |
| 20260505223025 | 76 | 98 | 0.9 | 9.6 | 0.00 | 0.00 | 0.00 | 38 | 1010.0 |
| 20260505222549 | 76 | 214 | 2.6 | 8.7 | 0.00 | 0.00 | 0.00 | 38 | 1010.1 |
| 20260505222054 | 75 | 169 | 3.5 | 8.7 | 0.00 | 0.00 | 0.00 | 36 | 1010.0 |
| 20260505221602 | 75 | 188 | 1.7 | 7.8 | 0.00 | 0.00 | 0.00 | 37 | 1010.0 |
| 20260505221102 | 75 | 350 | 3.5 | 9.6 | 0.00 | 0.00 | 0.00 | 37 | 1010.0 |
| 20260505220604 | 75 | 142 | 1.7 | 12.2 | 0.00 | 0.00 | 0.00 | 40 | 1010.0 |
| 20260505220109 | 75 | 300 | 1.7 | 7.8 | 0.00 | 0.00 | 0.00 | 38 | 1010.2 |
| 20260505215635 | 76 | 145 | 2.6 | 9.6 | 0.00 | 0.00 | 0.00 | 38 | 1010.3 |
| 20260505215143 | 76 | 209 | 2.6 | 9.6 | 0.00 | 0.00 | 0.00 | 39 | 1010.4 |
| 20260505214501 | 76 | 230 | 1.7 | 7.0 | 0.00 | 0.00 | 0.00 | 41 | 1010.2 |
| 20260505214006 | 76 | 184 | 2.6 | 7.0 | 0.00 | 0.00 | 0.00 | 40 | 1010.2 |
| 20260505213509 | 77 | 186 | 3.5 | 7.0 | 0.00 | 0.00 | 0.00 | 39 | 1010.0 |
| 20260505213016 | 77 | 327 | 1.7 | 7.8 | 0.00 | 0.00 | 0.00 | 40 | 1010.1 |
| 20260505212517 | 77 | 63 | 0.9 | 4.3 | 0.00 | 0.00 | 0.00 | 41 | 1010.1 |
| 20260505212023 | 77 | 141 | 1.7 | 7.0 | 0.00 | 0.00 | 0.00 | 41 | 1010.1 |
| 20260505211530 | 77 | 220 | 2.6 | 9.6 | 0.00 | 0.00 | 0.00 | 40 | 1010.1 |
| 20260505211049 | 77 | 200 | 1.7 | 9.6 | 0.00 | 0.00 | 0.00 | 40 | 1010.3 |
| 20260505210550 | 77 | 158 | 2.6 | 7.0 | 0.00 | 0.00 | 0.00 | 43 | 1010.4 |
| 20260505210053 | 77 | 160 | 0.9 | 7.0 | 0.00 | 0.00 | 0.00 | 44 | 1010.3 |
| 20260505205600 | 77 | 229 | 2.6 | 8.7 | 0.00 | 0.00 | 0.00 | 42 | 1010.3 |
| 20260505205106 | 77 | 264 | 2.6 | 8.7 | 0.00 | 0.00 | 0.00 | 43 | 1010.4 |
| 20260505204615 | 78 | 308 | 2.6 | 7.0 | 0.00 | 0.00 | 0.00 | 42 | 1010.6 |
| 20260505204122 | 78 | 191 | 1.7 | 7.0 | 0.00 | 0.00 | 0.00 | 42 | 1010.6 |
| 20260505203624 | 78 | 65 | 1.7 | 5.2 | 0.00 | 0.00 | 0.00 | 43 | 1010.7 |
| 20260505203007 | 78 | 137 | 0.9 | 5.2 | 0.00 | 0.00 | 0.00 | 44 | 1010.7 |
| 20260505202506 | 78 | 95 | 1.7 | 11.3 | 0.00 | 0.00 | 0.00 | 40 | 1010.8 |
| 20260505202010 | 79 | 96 | 3.5 | 11.3 | 0.00 | 0.00 | 0.00 | 40 | 1010.7 |
| 20260505201539 | 80 | 184 | 1.7 | 8.7 | 0.00 | 0.00 | 0.00 | 40 | 1010.7 |
| 20260505201013 | 80 | 107 | 1.7 | 7.0 | 0.00 | 0.00 | 0.00 | 40 | 1010.8 |
| 20260505200508 | 80 | 294 | 2.6 | 7.0 | 0.00 | 0.00 | 0.00 | 41 | 1010.9 |
| 20260505200010 | 80 | 227 | 1.7 | 7.8 | 0.00 | 0.00 | 0.00 | 42 | 1011.1 |
| 20260505195506 | 80 | 127 | 1.7 | 8.7 | 0.00 | 0.00 | 0.00 | 41 | 1011.0 |
| 20260505195011 | 80 | 250 | 0.9 | 8.7 | 0.00 | 0.00 | 0.00 | 41 | 1011.0 |
| 20260505194516 | 79 | 78 | 0.9 | 9.6 | 0.00 | 0.00 | 0.00 | 43 | 1011.0 |
| 20260505194021 | 79 | 151 | 2.6 | 9.6 | 0.00 | 0.00 | 0.00 | 40 | 1011.1 |
| 20260505193516 | 79 | 173 | 2.6 | 7.0 | 0.00 | 0.00 | 0.00 | 41 | 1011.3 |
| 20260505193041 | 79 | 217 | 2.6 | 11.3 | 0.00 | 0.00 | 0.00 | 39 | 1011.2 |
| 20260505192544 | 79 | 239 | 2.6 | 11.3 | 0.00 | 0.00 | 0.00 | 40 | 1011.4 |
| 20260505192051 | 79 | 258 | 1.7 | 8.7 | 0.00 | 0.00 | 0.00 | 38 | 1011.4 |
| 20260505191552 | 79 | 159 | 1.7 | 7.8 | 0.00 | 0.00 | 0.00 | 38 | 1011.4 |
| 20260505191058 | 79 | 129 | 1.7 | 7.8 | 0.00 | 0.00 | 0.00 | 38 | 1011.5 |
| 20260505190605 | 79 | 162 | 1.7 | 8.7 | 0.00 | 0.00 | 0.00 | 37 | 1011.4 |
| 20260505190111 | 78 | 119 | 2.6 | 8.7 | 0.00 | 0.00 | 0.00 | 36 | 1011.5 |
| 20260505185605 | 78 | 82 | 1.7 | 6.1 | 0.00 | 0.00 | 0.00 | 39 | 1011.7 |
| 20260505185110 | 78 | 229 | 2.6 | 6.1 | 0.00 | 0.00 | 0.00 | 39 | 1011.8 |
| 20260505184614 | 78 | 186 | 1.7 | 10.4 | 0.00 | 0.00 | 0.00 | 40 | 1012.0 |
| 20260505184121 | 78 | 239 | 2.6 | 7.8 | 0.00 | 0.00 | 0.00 | 39 | 1012.1 |
| 20260505183620 | 78 | 231 | 1.7 | 9.6 | 0.00 | 0.00 | 0.00 | 36 | 1012.3 |
| 20260505183002 | 78 | 207 | 2.6 | 9.6 | 0.00 | 0.00 | 0.00 | 38 | 1012.4 |
| 20260505182507 | 78 | 281 | 1.7 | 7.0 | 0.00 | 0.00 | 0.00 | 38 | 1012.4 |
| 20260505182013 | 78 | 180 | 2.6 | 6.1 | 0.00 | 0.00 | 0.00 | 38 | 1012.6 |
| 20260505181546 | 78 | 91 | 1.7 | 7.8 | 0.00 | 0.00 | 0.00 | 39 | 1012.7 |
| 20260505181038 | 78 | 67 | 2.6 | 7.8 | 0.00 | 0.00 | 0.00 | 37 | 1012.7 |
| 20260505180542 | 77 | 98 | 1.7 | 7.0 | 0.00 | 0.00 | 0.00 | 40 | 1012.7 |
| 20260505175553 | 77 | 233 | 1.7 | 8.7 | 0.00 | 0.00 | 0.00 | 38 | 1012.8 |
| 20260505175055 | 77 | 92 | 2.6 | 8.7 | 0.00 | 0.00 | 0.00 | 38 | 1012.9 |
| 20260505174602 | 77 | 160 | 2.6 | 7.8 | 0.00 | 0.00 | 0.00 | 40 | 1013.1 |
| 20260505174105 | 76 | 231 | 1.7 | 7.0 | 0.00 | 0.00 | 0.00 | 38 | 1013.1 |
| 20260505173615 | 76 | 182 | 0.9 | 6.1 | 0.00 | 0.00 | 0.00 | 40 | 1013.2 |
| 20260505173123 | 77 | 110 | 1.7 | 9.6 | 0.00 | 0.00 | 0.00 | 40 | 1013.2 |
| 20260505172624 | 76 | 122 | 1.7 | 9.6 | 0.00 | 0.00 | 0.00 | 41 | 1013.4 |
| 20260505172008 | 77 | 213 | 1.7 | 11.3 | 0.00 | 0.00 | 0.00 | 39 | 1013.5 |
| 20260505171518 | 76 | 269 | 1.7 | 11.3 | 0.00 | 0.00 | 0.00 | 39 | 1013.8 |
| 20260505171038 | 76 | 124 | 0.9 | 9.6 | 0.00 | 0.00 | 0.00 | 42 | 1013.8 |
| 20260505170541 | 77 | 89 | 1.7 | 8.7 | 0.00 | 0.00 | 0.00 | 40 | 1013.9 |
| 20260505170048 | 77 | 218 | 4.3 | 8.7 | 0.00 | 0.00 | 0.00 | 39 | 1013.9 |
| 20260505165556 | 76 | 135 | 2.6 | 8.7 | 0.00 | 0.00 | 0.00 | 40 | 1013.8 |
| 20260505165058 | 76 | 87 | 3.5 | 8.7 | 0.00 | 0.00 | 0.00 | 44 | 1013.8 |
| 20260505164601 | 76 | 175 | 2.6 | 8.7 | 0.00 | 0.00 | 0.00 | 42 | 1013.8 |
| 20260505164106 | 75 | 196 | 2.6 | 8.7 | 0.00 | 0.00 | 0.00 | 44 | 1013.8 |
| 20260505163608 | 75 | 224 | 1.7 | 6.1 | 0.00 | 0.00 | 0.00 | 47 | 1013.8 |
| 20260505163111 | 75 | 305 | 2.6 | 6.1 | 0.00 | 0.00 | 0.00 | 45 | 1013.8 |
| 20260505162614 | 76 | 217 | 1.7 | 7.0 | 0.00 | 0.00 | 0.00 | 46 | 1014.0 |
| 20260505162144 | 75 | 236 | 1.7 | 7.0 | 0.00 | 0.00 | 0.00 | 47 | 1014.0 |
| 20260505161647 | 75 | 289 | 1.7 | 6.1 | 0.00 | 0.00 | 0.00 | 49 | 1014.0 |
| 20260505161003 | 75 | 330 | 0.9 | 5.2 | 0.00 | 0.00 | 0.00 | 53 | 1014.0 |
| 20260505160516 | 75 | 94 | 1.7 | 7.8 | 0.00 | 0.00 | 0.00 | 53 | 1014.1 |
| 20260505153101 | 74 | 291 | 1.7 | 5.2 | 0.00 | 0.00 | 0.00 | 53 | 1013.9 |
| 20260505152606 | 73 | 209 | 0.9 | 6.1 | 0.00 | 0.00 | 0.00 | 53 | 1013.9 |
| 20260505152111 | 73 | 46 | 1.7 | 6.1 | 0.00 | 0.00 | 0.00 | 51 | 1014.0 |
| 20260505151637 | 72 | 321 | 0.9 | 5.2 | 0.00 | 0.00 | 0.00 | 52 | 1014.0 |
| 20260505151142 | 72 | 123 | 0.9 | 5.2 | 0.00 | 0.00 | 0.00 | 53 | 1014.0 |
| 20260505150503 | 72 | 75 | 1.7 | 5.2 | 0.00 | 0.00 | 0.00 | 53 | 1014.0 |
| 20260505140613 | 69 | 191 | 0.9 | 2.6 | 0.00 | 0.00 | 0.00 | 57 | 1014.0 |
| 20260505140117 | 68 | 250 | 0.0 | 2.6 | 0.00 | 0.00 | 0.00 | 56 | 1014.1 |
| 20260505124605 | 61 | 136 | 0.0 | 0.0 | 0.00 | 0.00 | 0.00 | 70 | 1013.8 |
| 20260505124110 | 60 | 136 | 0.0 | 0.0 | 0.00 | 0.00 | 0.00 | 75 | 1013.7 |
| 20260505123616 | 59 | 136 | 0.0 | 0.0 | 0.00 | 0.00 | 0.00 | 75 | 1013.7 |
| 20260505123117 | 58 | 136 | 0.0 | 0.0 | 0.00 | 0.00 | 0.00 | 77 | 1013.8 |
| 20260505122621 | 57 | 136 | 0.0 | 0.0 | 0.00 | 0.00 | 0.00 | 76 | 1013.7 |
| 20260505122003 | 57 | 136 | 0.0 | 0.0 | 0.00 | 0.00 | 0.00 | 80 | 1013.7 |
| 20260505121507 | 56 | 136 | 0.0 | 0.0 | 0.00 | 0.00 | 0.00 | 81 | 1013.7 |
| 20260505121008 | 55 | 136 | 0.0 | 0.0 | 0.00 | 0.00 | 0.00 | 81 | 1013.6 |
| 20260505120511 | 54 | 136 | 0.0 | 1.7 | 0.00 | 0.00 | 0.00 | 83 | 1013.5 |
| 20260505120016 | 53 | 113 | 0.0 | 1.7 | 0.00 | 0.00 | 0.00 | 83 | 1013.4 |
| 20260505115513 | 53 | 308 | 0.0 | 0.0 | 0.00 | 0.00 | 0.00 | 84 | 1013.5 |
| 20260505115017 | 52 | 308 | 0.0 | 0.0 | 0.00 | 0.00 | 0.00 | 84 | 1013.5 |
| 20260505114545 | 51 | 308 | 0.0 | 0.0 | 0.00 | 0.00 | 0.00 | 87 | 1013.3 |
| 20260505114045 | 50 | 308 | 0.0 | 0.0 | 0.00 | 0.00 | 0.00 | 89 | 1013.3 |
| 20260505113555 | 50 | 308 | 0.0 | 0.0 | 0.00 | 0.00 | 0.00 | 89 | 1013.3 |
| 20260505113055 | 49 | 308 | 0.0 | 0.0 | 0.00 | 0.00 | 0.00 | 90 | 1013.1 |
| 20260505112600 | 49 | 308 | 0.0 | 0.0 | 0.00 | 0.00 | 0.00 | 90 | 1012.9 |
| 20260505112100 | 49 | 308 | 0.0 | 0.0 | 0.00 | 0.00 | 0.00 | 90 | 1012.7 |
| 20260505111606 | 48 | 308 | 0.0 | 0.0 | 0.00 | 0.00 | 0.00 | 92 | 1012.6 |
| 20260505111111 | 47 | 308 | 0.0 | 0.0 | 0.00 | 0.00 | 0.00 | 92 | 1012.6 |
| 20260505110642 | 47 | 308 | 0.0 | 0.0 | 0.00 | 0.00 | 0.00 | 92 | 1012.6 |
| 20260505110119 | 46 | 309 | 0.0 | 0.0 | 0.00 | 0.00 | 0.00 | 93 | 1012.6 |
| 20260505102055 | 46 | 309 | 0.0 | 0.0 | 0.00 | 0.00 | 0.00 | 92 | 1012.5 |
| 20260505101606 | 46 | 309 | 0.0 | 0.0 | 0.00 | 0.00 | 0.00 | 92 | 1012.5 |
| 20260505101103 | 46 | 309 | 0.0 | 0.0 | 0.00 | 0.00 | 0.00 | 92 | 1012.6 |
| 20260505100610 | 46 | 309 | 0.0 | 0.0 | 0.00 | 0.00 | 0.00 | 92 | 1012.6 |
| 20260505100011 | 46 | 309 | 0.0 | 0.0 | 0.00 | 0.00 | 0.00 | 91 | 1012.7 |
| 20260505095515 | 46 | 309 | 0.0 | 0.0 | 0.00 | 0.00 | 0.00 | 91 | 1012.6 |
| 20260505095017 | 46 | 309 | 0.0 | 0.0 | 0.00 | 0.00 | 0.00 | 91 | 1012.6 |
| 20260505094520 | 47 | 309 | 0.0 | 0.0 | 0.00 | 0.00 | 0.00 | 92 | 1012.4 |
| 20260505094044 | 47 | 306 | 0.0 | 0.0 | 0.00 | 0.00 | 0.00 | 92 | 1012.4 |
| 20260505093600 | 47 | 306 | 0.0 | 0.0 | 0.00 | 0.00 | 0.00 | 92 | 1012.4 |
| 20260505093105 | 47 | 306 | 0.0 | 0.0 | 0.00 | 0.00 | 0.00 | 92 | 1012.4 |
| 20260505092610 | 47 | 306 | 0.0 | 0.0 | 0.00 | 0.00 | 0.00 | 92 | 1012.5 |
| 20260505092115 | 47 | 306 | 0.0 | 0.0 | 0.00 | 0.00 | 0.00 | 91 | 1012.5 |
| 20260505091602 | 47 | 306 | 0.0 | 0.0 | 0.00 | 0.00 | 0.00 | 91 | 1012.5 |
| 20260505091119 | 47 | 306 | 0.0 | 0.0 | 0.00 | 0.00 | 0.00 | 91 | 1012.5 |
| 20260505090501 | 47 | 306 | 0.0 | 0.0 | 0.00 | 0.00 | 0.00 | 90 | 1012.5 |
| 20260505090009 | 47 | 306 | 0.0 | 0.0 | 0.00 | 0.00 | 0.00 | 90 | 1012.5 |
| 20260505085535 | 47 | 306 | 0.0 | 0.0 | 0.00 | 0.00 | 0.00 | 90 | 1012.5 |
| 20260505085041 | 47 | 306 | 0.0 | 0.0 | 0.00 | 0.00 | 0.00 | 90 | 1012.6 |
| 20260505084559 | 48 | 306 | 0.0 | 0.0 | 0.00 | 0.00 | 0.00 | 90 | 1012.6 |
| 20260505084027 | 48 | 306 | 0.0 | 0.0 | 0.00 | 0.00 | 0.00 | 90 | 1012.5 |
| 20260505083556 | 48 | 306 | 0.0 | 0.0 | 0.00 | 0.00 | 0.00 | 90 | 1012.6 |
| 20260505083112 | 48 | 306 | 0.0 | 0.0 | 0.00 | 0.00 | 0.00 | 89 | 1012.5 |
| 20260505082607 | 48 | 306 | 0.0 | 0.0 | 0.00 | 0.00 | 0.00 | 89 | 1012.4 |
| 20260505082116 | 48 | 306 | 0.0 | 0.0 | 0.00 | 0.00 | 0.00 | 89 | 1012.4 |
| 20260505081625 | 48 | 306 | 0.0 | 0.0 | 0.00 | 0.00 | 0.00 | 89 | 1012.5 |
| 20260505081126 | 48 | 306 | 0.0 | 0.0 | 0.00 | 0.00 | 0.00 | 89 | 1012.4 |
| 20260505080510 | 48 | 306 | 0.0 | 0.0 | 0.00 | 0.00 | 0.00 | 88 | 1012.4 |
| 20260505080015 | 49 | 306 | 0.0 | 0.0 | 0.00 | 0.00 | 0.00 | 88 | 1012.4 |
| 20260505075541 | 49 | 306 | 0.0 | 0.0 | 0.00 | 0.00 | 0.00 | 87 | 1012.4 |
| 20260505075041 | 49 | 306 | 0.0 | 0.0 | 0.00 | 0.00 | 0.00 | 87 | 1012.4 |
| 20260505074549 | 50 | 306 | 0.0 | 0.0 | 0.00 | 0.00 | 0.00 | 86 | 1012.3 |
| 20260505074056 | 50 | 306 | 0.0 | 0.0 | 0.00 | 0.00 | 0.00 | 85 | 1012.3 |
| 20260505073602 | 50 | 306 | 0.0 | 0.0 | 0.00 | 0.00 | 0.00 | 85 | 1012.3 |
| 20260505073106 | 51 | 306 | 0.0 | 0.0 | 0.00 | 0.00 | 0.00 | 85 | 1012.3 |
| 20260505072612 | 51 | 306 | 0.0 | 0.0 | 0.00 | 0.00 | 0.00 | 85 | 1012.3 |
| 20260505072141 | 51 | 304 | 0.0 | 0.0 | 0.00 | 0.00 | 0.00 | 86 | 1012.4 |
| 20260505071644 | 51 | 304 | 0.0 | 0.0 | 0.00 | 0.00 | 0.00 | 86 | 1012.4 |
| 20260505071004 | 51 | 304 | 0.0 | 0.0 | 0.00 | 0.00 | 0.00 | 85 | 1012.4 |
| 20260505070510 | 51 | 304 | 0.0 | 0.0 | 0.00 | 0.00 | 0.00 | 84 | 1012.4 |
| 20260505070014 | 51 | 304 | 0.0 | 0.0 | 0.00 | 0.00 | 0.00 | 84 | 1012.4 |
| 20260505065518 | 52 | 304 | 0.0 | 0.0 | 0.00 | 0.00 | 0.00 | 85 | 1012.5 |
| 20260505065023 | 52 | 304 | 0.0 | 0.0 | 0.00 | 0.00 | 0.00 | 84 | 1012.5 |
| 20260505064625 | 52 | 304 | 0.0 | 0.0 | 0.00 | 0.00 | 0.00 | 84 | 1012.5 |
| 20260505064053 | 52 | 304 | 0.0 | 0.0 | 0.00 | 0.00 | 0.00 | 84 | 1012.5 |
| 20260505063558 | 52 | 304 | 0.0 | 0.0 | 0.00 | 0.00 | 0.00 | 83 | 1012.5 |
| 20260505063107 | 52 | 304 | 0.0 | 0.0 | 0.00 | 0.00 | 0.00 | 83 | 1012.5 |
| 20260505062603 | 52 | 304 | 0.0 | 0.0 | 0.00 | 0.00 | 0.00 | 84 | 1012.5 |
| 20260505062107 | 52 | 304 | 0.0 | 0.0 | 0.00 | 0.00 | 0.00 | 83 | 1012.5 |
| 20260505061612 | 52 | 319 | 0.0 | 0.0 | 0.00 | 0.00 | 0.00 | 83 | 1012.5 |
| 20260505061120 | 53 | 321 | 0.0 | 0.9 | 0.00 | 0.00 | 0.00 | 83 | 1012.5 |
| 20260505060619 | 53 | 321 | 0.0 | 0.9 | 0.00 | 0.00 | 0.00 | 83 | 1012.5 |
| 20260505060147 | 53 | 316 | 0.0 | 1.7 | 0.00 | 0.00 | 0.00 | 83 | 1012.5 |
| 20260505055643 | 53 | 339 | 0.0 | 1.7 | 0.00 | 0.00 | 0.00 | 84 | 1012.5 |
| 20260505055120 | 53 | 137 | 0.0 | 0.0 | 0.00 | 0.00 | 0.00 | 84 | 1012.4 |
| 20260505054510 | 53 | 137 | 0.0 | 0.0 | 0.00 | 0.00 | 0.00 | 83 | 1012.4 |
| 20260505054011 | 53 | 137 | 0.0 | 0.0 | 0.00 | 0.00 | 0.00 | 84 | 1012.4 |
| 20260505053539 | 53 | 137 | 0.0 | 0.0 | 0.00 | 0.00 | 0.00 | 84 | 1012.4 |
| 20260505053046 | 53 | 137 | 0.0 | 0.0 | 0.00 | 0.00 | 0.00 | 83 | 1012.4 |
| 20260505052551 | 53 | 137 | 0.0 | 0.0 | 0.00 | 0.00 | 0.00 | 82 | 1012.4 |
| 20260505052055 | 53 | 137 | 0.0 | 0.0 | 0.00 | 0.00 | 0.00 | 83 | 1012.3 |
| 20260505051602 | 53 | 137 | 0.0 | 0.0 | 0.00 | 0.00 | 0.00 | 82 | 1012.3 |
| 20260505051108 | 53 | 137 | 0.0 | 0.0 | 0.00 | 0.00 | 0.00 | 82 | 1012.3 |
| 20260505050612 | 53 | 137 | 0.0 | 0.0 | 0.00 | 0.00 | 0.00 | 82 | 1012.3 |
| 20260505050138 | 53 | 137 | 0.0 | 0.0 | 0.00 | 0.00 | 0.00 | 82 | 1012.3 |
| 20260505041603 | 55 | 137 | 0.0 | 0.0 | 0.00 | 0.00 | 0.00 | 80 | 1012.4 |
| 20260505041102 | 55 | 137 | 0.0 | 0.0 | 0.00 | 0.00 | 0.00 | 79 | 1012.3 |
| 20260505040647 | 55 | 137 | 0.0 | 0.0 | 0.00 | 0.00 | 0.00 | 79 | 1012.4 |
| 20260505040005 | 55 | 137 | 0.0 | 0.0 | 0.00 | 0.00 | 0.00 | 79 | 1012.4 |
| 20260505035507 | 55 | 137 | 0.0 | 0.0 | 0.00 | 0.00 | 0.00 | 79 | 1012.4 |
| 20260505035038 | 56 | 137 | 0.0 | 0.0 | 0.00 | 0.00 | 0.00 | 78 | 1012.3 |
| 20260505034603 | 56 | 137 | 0.0 | 0.0 | 0.00 | 0.00 | 0.00 | 78 | 1012.3 |
| 20260505034047 | 56 | 137 | 0.0 | 0.0 | 0.00 | 0.00 | 0.00 | 77 | 1012.3 |
| 20260505033555 | 56 | 137 | 0.0 | 0.0 | 0.00 | 0.00 | 0.00 | 76 | 1012.2 |
| 20260505033101 | 57 | 137 | 0.0 | 0.0 | 0.00 | 0.00 | 0.00 | 75 | 1012.3 |
| 20260505032601 | 57 | 137 | 0.0 | 0.0 | 0.00 | 0.00 | 0.00 | 75 | 1012.3 |
| 20260505032102 | 57 | 137 | 0.0 | 0.0 | 0.00 | 0.00 | 0.00 | 74 | 1012.3 |
| 20260505031608 | 57 | 137 | 0.0 | 0.0 | 0.00 | 0.00 | 0.00 | 74 | 1012.4 |
| 20260505031138 | 58 | 137 | 0.0 | 0.0 | 0.00 | 0.00 | 0.00 | 73 | 1012.4 |
| 20260505030647 | 58 | 137 | 0.0 | 0.0 | 0.00 | 0.00 | 0.00 | 72 | 1012.5 |
| 20260505030022 | 59 | 137 | 0.0 | 0.0 | 0.00 | 0.00 | 0.00 | 71 | 1012.5 |
| 20260505025503 | 59 | 137 | 0.0 | 0.0 | 0.00 | 0.00 | 0.00 | 69 | 1012.5 |
| 20260505025112 | 59 | 137 | 0.0 | 0.0 | 0.00 | 0.00 | 0.00 | 68 | 1012.5 |
| 20260505024639 | 59 | 137 | 0.0 | 0.0 | 0.00 | 0.00 | 0.00 | 67 | 1012.5 |
| 20260505024001 | 60 | 137 | 0.0 | 0.0 | 0.00 | 0.00 | 0.00 | 67 | 1012.6 |
| 20260505023504 | 60 | 137 | 0.0 | 0.0 | 0.00 | 0.00 | 0.00 | 66 | 1012.6 |
| 20260505023008 | 61 | 137 | 0.0 | 0.0 | 0.00 | 0.00 | 0.00 | 65 | 1012.6 |
| 20260505022509 | 61 | 137 | 0.0 | 0.0 | 0.00 | 0.00 | 0.00 | 63 | 1012.5 |
| 20260505022017 | 62 | 137 | 0.0 | 0.0 | 0.00 | 0.00 | 0.00 | 62 | 1012.5 |
| 20260505021546 | 62 | 137 | 0.0 | 0.0 | 0.00 | 0.00 | 0.00 | 61 | 1012.5 |
| 20260505021052 | 62 | 137 | 0.0 | 0.0 | 0.00 | 0.00 | 0.00 | 61 | 1012.4 |
| 20260505020554 | 63 | 137 | 0.0 | 0.0 | 0.00 | 0.00 | 0.00 | 61 | 1012.4 |
| 20260505020109 | 63 | 137 | 0.0 | 0.0 | 0.00 | 0.00 | 0.00 | 60 | 1012.4 |
| 20260505015607 | 63 | 137 | 0.0 | 0.0 | 0.00 | 0.00 | 0.00 | 60 | 1012.4 |
| 20260505015115 | 63 | 137 | 0.0 | 0.0 | 0.00 | 0.00 | 0.00 | 59 | 1012.4 |
| 20260505014640 | 64 | 137 | 0.0 | 0.0 | 0.00 | 0.00 | 0.00 | 58 | 1012.3 |